Weather History for Sheridan, WY

Change the Weather History Date:

Friday, September 13, 2013

  Actual Average Record
Temperature  
Mean Temperature 68 °F 59 °F  
Max Temperature 81 °F 76 °F 95 °F (1959)
Min Temperature 54 °F 43 °F 27 °F (1974)
Degree Days  
Heating Degree Days 0 7  
Month to date heating degree days 1 64  
Since 1 July heating degree days 2 126  
Cooling Degree Days 3 1  
Month to date cooling degree days 76 21  
Year to date cooling degree days 586 411  
Growing Degree Days 18 (Base 50)    
Moisture  
Dew Point 54 °F    
Average Humidity 68    
Maximum Humidity 93    
Minimum Humidity 42    
Precipitation  
Precipitation 0.36 in 0.05 in 2.02 in (1998)
Month to date precipitation 0.92 0.53  
Year to date precipitation 10.91 10.58  
Sea Level Pressure  
Sea Level Pressure 29.87 in    
Wind  
Wind Speed 8 mph (SW)    
Max Wind Speed 20 mph    
Max Gust Speed 25 mph    
Visibility 9 miles    
Events Rain    
T = Trace of Precipitation, MM = Missing Value Source: NWS Daily Summary

Daily Weather History Graph

Daily Weather History Graph

Search for Another Location

Airport:

Trip Planner

Search our weather history database for the weather conditions in past years. The results will help you decide how hot, cold, wet, or windy it might be!

Date:

Astronomy

Sep. 13, 2013 Rise Set
Actual Time 6:44 AM MDT 7:21 PM MDT
Civil Twilight 6:15 AM MDT 7:51 PM MDT
Nautical Twilight 5:40 AM MDT 8:26 PM MDT
Astronomical Twilight 5:04 AM MDT 9:02 PM MDT
Moon 3:24 PM MDT (9/13) 12:05 AM MDT (9/13)
Length of Visible Light 13h 35m
Length of Day
12h 37m
Waxing Gibbous, 62% of the Moon is Illuminated
Sep 13
Waxing Gibbous
Sep 19
Full
Sep 26
Last Quarter
Oct 4
New
Oct 11
First Quarter

Hourly Weather History & Observations

Time (MDT) Temp. Dew Point Humidity Pressure Visibility Wind Dir Wind Speed Gust Speed Precip Events Conditions
12:53 AM 66.9 °F 51.1 °F 57% 29.99 in 10.0 mi SE 16.1 mph 21.9 mph N/A   Clear
1:53 AM 64.9 °F 52.0 °F 63% 29.99 in 10.0 mi SSE 15.0 mph 21.9 mph N/A   Clear
2:53 AM 61.0 °F 50.0 °F 67% 29.97 in 10.0 mi Variable 4.6 mph - N/A   Clear
3:53 AM 64.0 °F 52.0 °F 65% 29.96 in 10.0 mi SSE 15.0 mph 20.7 mph N/A   Clear
4:53 AM 59.0 °F 51.1 °F 75% 29.96 in 10.0 mi Calm Calm - N/A   Clear
5:53 AM 55.0 °F 48.9 °F 80% 29.94 in 10.0 mi WSW 4.6 mph - N/A   Partly Cloudy
6:53 AM 57.9 °F 51.1 °F 78% 29.94 in 10.0 mi Calm Calm - N/A   Overcast
7:53 AM 61.0 °F 51.1 °F 70% 29.93 in 10.0 mi NNW 5.8 mph - N/A   Overcast
8:53 AM 63.0 °F 53.1 °F 70% 29.92 in 10.0 mi NW 5.8 mph - N/A   Overcast
9:53 AM 68.0 °F 54.0 °F 61% 29.90 in 10.0 mi Variable 3.5 mph - N/A   Partly Cloudy
10:53 AM 69.1 °F 54.0 °F 58% 29.88 in 10.0 mi SSW 8.1 mph - N/A   Overcast
11:53 AM 71.1 °F 54.0 °F 55% 29.86 in 10.0 mi West 6.9 mph - 0.00 in   Partly Cloudy
12:53 PM 77.0 °F 54.0 °F 45% 29.82 in 10.0 mi SW 5.8 mph - N/A   Partly Cloudy
1:53 PM 77.0 °F 54.0 °F 45% 29.80 in 10.0 mi SE 10.4 mph - N/A   Clear
2:53 PM 77.0 °F 54.0 °F 45% 29.79 in 10.0 mi SE 12.7 mph - N/A   Scattered Clouds
3:53 PM 78.1 °F 54.0 °F 43% 29.77 in 10.0 mi SSE 9.2 mph - N/A   Clear
4:53 PM 72.0 °F 55.9 °F 57% 29.79 in 10.0 mi SSE 15.0 mph 25.3 mph N/A   Overcast
5:53 PM 66.0 °F 61.0 °F 84% 29.82 in 7.0 mi SSE 12.7 mph - 0.02 in Rain Rain
6:53 PM 64.0 °F 61.0 °F 90% 29.82 in 9.0 mi NNW 17.3 mph - 0.08 in Rain Light Rain
7:37 PM 60.8 °F 57.2 °F 88% 29.90 in 10.0 mi WNW 13.8 mph - 0.00 in Rain Light Rain
7:53 PM 60.1 °F 55.9 °F 86% 29.84 in 2.0 mi NW 12.7 mph - 0.13 in Rain Heavy Rain
7:55 PM 60.8 °F 55.4 °F 82% 29.90 in 2.0 mi NW 11.5 mph - 0.02 in Rain Heavy Rain
8:10 PM 60.8 °F 55.4 °F 82% 29.90 in 6.0 mi NW 8.1 mph - 0.13 in Rain Light Rain
8:53 PM 60.1 °F 55.9 °F 86% 29.83 in 10.0 mi North 8.1 mph - 0.13 in   Overcast
9:53 PM 59.0 °F 57.0 °F 93% 29.82 in 10.0 mi South 3.5 mph - N/A   Overcast
10:53 PM 57.9 °F 55.0 °F 90% 29.81 in 10.0 mi Calm Calm - N/A   Clear
11:53 PM 57.0 °F 55.0 °F 93% 29.80 in 10.0 mi SW 4.6 mph - N/A   Clear